Weather History for KHAI - January, 2014

Change the Weather History Date:

Thursday, January 2, 2014

  Actual Average Record
Temperature  
Mean Temperature 6 °F -  
Max Temperature 14 °F 31 °F 50 °F (1954)
Min Temperature -4 °F 16 °F -5 °F (1974)
Degree Days  
Heating Degree Days 59    
Moisture  
Dew Point 4 °F    
Average Humidity 73    
Maximum Humidity 86    
Minimum Humidity 57    
Precipitation  
Precipitation 0.00 in - - ()
Sea Level Pressure  
Sea Level Pressure 30.16 in    
Wind  
Wind Speed 10 mph (NNE)    
Max Wind Speed 17 mph    
Max Gust Speed 24 mph    
Visibility 6 miles    
Events Snow    
Averages and records for this station are not official NWS values.
T = Trace of Precipitation, MM = Missing Value Source: NWS Daily Summary

Daily Weather History Graph

Daily Weather History Graph

Search for Another Location

Airport or City:

Trip Planner

Search our weather history database for the weather conditions in past years. The results will help you decide how hot, cold, wet, or windy it might be!

Date:

Astronomy

Jan. 02, 2014 Rise Set
Actual Time 8:10 AM EST 5:22 PM EST
Civil Twilight 7:38 AM EST 5:54 PM EST
Nautical Twilight 7:03 AM EST 6:29 PM EST
Astronomical Twilight 6:30 AM EST 7:03 PM EST
Moon 8:49 AM EST (1/2) 7:21 PM EST (1/2)
Length of Visible Light 10h 15m
Length of Day
9h 12m
New Moon, 2% of the Moon is Illuminated
Jan 2
New Moon
Jan 7
First Quarter
Jan 15
Full
Jan 24
Last Quarter
Jan 30
New

Hourly Weather History & Observations

Time (EST) Temp. Windchill Dew Point Humidity Pressure Visibility Wind Dir Wind Speed Gust Speed Precip Events Conditions
12:18 AM 14.0 °F 2.0 °F 8.6 °F 79% 30.15 in 3.0 mi NE 9.2 mph - N/A Snow Light Snow
12:38 AM 14.0 °F 2.9 °F 8.6 °F 79% 30.15 in 4.0 mi NE 8.1 mph - N/A Snow Light Snow
12:58 AM 14.0 °F 2.0 °F 8.6 °F 79% 30.14 in 3.0 mi NE 9.2 mph - N/A Snow Light Snow
1:18 AM 14.0 °F 0.5 °F 8.6 °F 79% 30.14 in 2.5 mi NNE 11.5 mph - N/A Snow Light Snow
1:39 AM 14.0 °F 2.0 °F 8.6 °F 79% 30.13 in 3.0 mi NNE 9.2 mph 17.3 mph N/A Snow Light Snow
1:58 AM 14.0 °F 0.5 °F 8.6 °F 79% 30.12 in 3.0 mi NE 11.5 mph - N/A Snow Light Snow
2:20 AM 14.0 °F 1.2 °F 8.6 °F 79% 30.12 in 7.0 mi NE 10.4 mph - N/A Snow Light Snow
2:38 AM 14.0 °F 0.5 °F 8.6 °F 79% 30.12 in 3.0 mi NE 11.5 mph - N/A Snow Light Snow
2:58 AM 14.0 °F 0.5 °F 8.6 °F 79% 30.11 in 3.0 mi NE 11.5 mph 17.3 mph N/A Snow Light Snow
3:18 AM 14.0 °F 1.2 °F 10.4 °F 86% 30.11 in 3.0 mi NE 10.4 mph 17.3 mph N/A Snow Light Snow
3:39 AM 14.0 °F -0.2 °F 10.4 °F 86% 30.11 in 2.5 mi NE 12.7 mph 16.1 mph N/A Snow Light Snow
3:59 AM 14.0 °F 1.2 °F 10.4 °F 86% 30.10 in 3.0 mi NE 10.4 mph 19.6 mph N/A Snow Light Snow
4:18 AM 14.0 °F 2.0 °F 10.4 °F 86% 30.09 in 3.0 mi NE 9.2 mph 18.4 mph N/A Snow Light Snow
4:38 AM 14.0 °F 0.5 °F 10.4 °F 86% 30.09 in 2.0 mi NE 11.5 mph - N/A Snow Light Snow
4:58 AM 14.0 °F 0.5 °F 10.4 °F 86% 30.08 in 2.0 mi NE 11.5 mph 18.4 mph N/A Snow Light Snow
5:18 AM 14.0 °F 0.5 °F 8.6 °F 79% 30.07 in 2.5 mi NE 11.5 mph 20.7 mph N/A Snow Light Snow
5:38 AM 14.0 °F -1.4 °F 8.6 °F 79% 30.07 in 2.5 mi NE 15.0 mph 20.7 mph N/A Snow Light Snow
5:58 AM 14.0 °F -0.8 °F 8.6 °F 79% 30.07 in 2.5 mi NE 13.8 mph 21.9 mph N/A Snow Light Snow
6:18 AM 14.0 °F -0.8 °F 8.6 °F 79% 30.07 in 2.5 mi NE 13.8 mph 19.6 mph N/A Snow Light Snow
6:38 AM 14.0 °F -0.8 °F 8.6 °F 79% 30.07 in 2.5 mi NE 13.8 mph - N/A Snow Light Snow
6:58 AM 14.0 °F 0.5 °F 8.6 °F 79% 30.08 in 2.5 mi NE 11.5 mph 20.7 mph N/A Snow Light Snow
7:18 AM 14.0 °F -1.4 °F 8.6 °F 79% 30.09 in 2.5 mi NE 15.0 mph 21.9 mph N/A Snow Light Snow
7:38 AM 14.0 °F -2.5 °F 8.6 °F 79% 30.09 in 3.0 mi NNE 17.3 mph - N/A Snow Light Snow
8:03 AM 14.0 °F -0.2 °F 8.6 °F 79% 30.09 in 3.0 mi NNE 12.7 mph 18.4 mph N/A Snow Light Snow
8:18 AM 14.0 °F -0.2 °F 8.6 °F 79% 30.10 in 1.8 mi NE 12.7 mph - N/A Snow Light Snow
8:38 AM 14.0 °F 0.5 °F 8.6 °F 79% 30.09 in 2.5 mi NNE 11.5 mph 16.1 mph N/A Snow Light Snow
8:58 AM 14.0 °F 2.9 °F 6.8 °F 73% 30.10 in 4.0 mi NNE 8.1 mph 18.4 mph N/A Snow Light Snow
9:19 AM 14.0 °F 0.5 °F 6.8 °F 73% 30.10 in 2.0 mi NE 11.5 mph 18.4 mph N/A Snow Light Snow
9:39 AM 14.0 °F -0.2 °F 6.8 °F 73% 30.10 in 3.0 mi NNE 12.7 mph 17.3 mph N/A Snow Light Snow
9:59 AM 14.0 °F 0.5 °F 6.8 °F 73% 30.11 in 1.2 mi NNE 11.5 mph 20.7 mph N/A Snow Light Snow
10:18 AM 14.0 °F 2.0 °F 6.8 °F 73% 30.12 in 1.5 mi NNE 9.2 mph 18.4 mph N/A Snow Light Snow
10:38 AM 14.0 °F 0.5 °F 8.6 °F 79% 30.12 in 1.2 mi NNE 11.5 mph 18.4 mph N/A Snow Light Snow
10:58 AM 14.0 °F -0.2 °F 6.8 °F 73% 30.13 in 1.8 mi North 12.7 mph 19.6 mph N/A Snow Light Snow
11:19 AM 14.0 °F -0.8 °F 6.8 °F 73% 30.13 in 2.5 mi NNE 13.8 mph 19.6 mph N/A Snow Light Snow
11:38 AM 14.0 °F 1.2 °F 6.8 °F 73% 30.12 in 2.0 mi NNE 10.4 mph 18.4 mph N/A Snow Light Snow
11:58 AM 14.0 °F -2.5 °F 6.8 °F 73% 30.12 in 3.0 mi North 17.3 mph 21.9 mph N/A Snow Light Snow
12:18 PM 14.0 °F -0.8 °F 6.8 °F 73% 30.12 in 5.0 mi North 13.8 mph 20.7 mph N/A   Haze
12:38 PM 14.0 °F -2.5 °F 6.8 °F 73% 30.11 in 5.0 mi North 17.3 mph 21.9 mph N/A   Haze
12:59 PM 14.0 °F -2.5 °F 6.8 °F 73% 30.11 in 3.0 mi North 17.3 mph 20.7 mph N/A   Haze
1:18 PM 14.0 °F -0.8 °F 6.8 °F 73% 30.11 in 2.5 mi NNE 13.8 mph 20.7 mph N/A Snow Light Snow
1:38 PM 14.0 °F -1.4 °F 6.8 °F 73% 30.11 in 2.5 mi North 15.0 mph 19.6 mph N/A Snow Light Snow
1:59 PM 14.0 °F -1.4 °F 6.8 °F 73% 30.11 in 2.0 mi NNE 15.0 mph 23.0 mph N/A Snow Light Snow
2:18 PM 14.0 °F 0.5 °F 6.8 °F 73% 30.12 in 2.5 mi North 11.5 mph 23.0 mph N/A Snow Light Snow
2:38 PM 14.0 °F -0.2 °F 5.0 °F 67% 30.12 in 5.0 mi North 12.7 mph 20.7 mph N/A   Haze
2:58 PM 14.0 °F -2.5 °F 5.0 °F 67% 30.12 in 10.0 mi North 17.3 mph 24.2 mph N/A   Overcast
3:18 PM 14.0 °F 1.2 °F 3.2 °F 62% 30.13 in 10.0 mi North 10.4 mph 24.2 mph N/A   Overcast
3:24 PM 13.8 °F -2.2 °F 3.7 °F 64% 30.13 in 10.0 mi North 16.1 mph 20.7 mph N/A   Overcast
3:35 PM 13.6 °F -1.9 °F 3.2 °F 63% 30.14 in 10.0 mi North 15.0 mph 23.0 mph N/A   Overcast
3:55 PM 13.5 °F -0.2 °F 2.5 °F 62% 30.15 in 10.0 mi North 11.5 mph 23.0 mph N/A   Overcast
4:14 PM 13.5 °F -0.9 °F 2.1 °F 61% 30.15 in 10.0 mi NNE 12.7 mph 23.0 mph N/A   Overcast
4:35 PM 13.1 °F -1.4 °F 2.1 °F 62% 30.17 in 10.0 mi North 12.7 mph 18.4 mph N/A   Overcast
4:55 PM 13.1 °F 0.1 °F 1.6 °F 60% 30.18 in 10.0 mi North 10.4 mph 17.3 mph N/A   Overcast
5:14 PM 12.9 °F -2.2 °F 1.4 °F 60% 30.19 in 10.0 mi North 13.8 mph 20.7 mph N/A   Overcast
5:35 PM 12.7 °F 1.4 °F 1.4 °F 61% 30.21 in 10.0 mi North 8.1 mph - N/A   Overcast
5:55 PM 12.6 °F -0.6 °F 0.9 °F 60% 30.22 in 10.0 mi North 10.4 mph 17.3 mph N/A   Overcast
6:14 PM 12.2 °F 0.7 °F 0.3 °F 59% 30.22 in 10.0 mi North 8.1 mph - N/A   Overcast
6:35 PM 12.0 °F 2.7 °F -0.6 °F 57% 30.23 in 10.0 mi North 5.8 mph - N/A   Overcast
6:55 PM 11.7 °F 1.1 °F -0.9 °F 57% 30.24 in 10.0 mi North 6.9 mph - N/A   Overcast
7:15 PM 10.9 °F 0.2 °F -1.3 °F 58% 30.25 in 10.0 mi North 6.9 mph - N/A   Mostly Cloudy
7:35 PM 10.0 °F 0.4 °F -1.7 °F 59% 30.26 in 10.0 mi North 5.8 mph - N/A   Scattered Clouds
7:55 PM 9.5 °F -0.3 °F -1.7 °F 61% 30.27 in 10.0 mi North 5.8 mph - N/A   Clear
8:15 PM 8.6 °F -1.3 °F -2.4 °F 61% 30.28 in 10.0 mi North 5.8 mph - N/A   Clear
8:35 PM 6.1 °F -0.9 °F -4.4 °F 62% 30.27 in 10.0 mi NNE 3.5 mph - N/A   Clear
8:54 PM 5.4 °F -3.6 °F -4.0 °F 65% 30.28 in 10.0 mi North 4.6 mph - N/A   Clear
9:15 PM 5.5 °F - -3.6 °F 66% 30.27 in 10.0 mi Calm Calm - N/A   Clear
9:35 PM 3.7 °F - -4.0 °F 70% 30.28 in 10.0 mi Calm Calm - N/A   Clear
9:54 PM 1.2 °F - -4.7 °F 76% 30.29 in 10.0 mi Calm Calm - N/A   Clear
10:15 PM -0.8 °F -8.7 °F -5.8 °F 79% 30.29 in 10.0 mi NW 3.5 mph - N/A   Clear
10:35 PM -0.9 °F -8.9 °F -5.3 °F 82% 30.30 in 10.0 mi NW 3.5 mph - N/A   Clear
10:54 PM -0.0 °F -7.9 °F -4.5 °F 81% 30.30 in 10.0 mi NW 3.5 mph - N/A   Clear
11:15 PM -1.1 °F - -5.6 °F 81% 30.31 in 10.0 mi Calm Calm - N/A   Clear
11:34 PM -2.4 °F - -6.7 °F 82% 30.32 in 10.0 mi Calm Calm - N/A   Clear
11:55 PM -4.5 °F - -9.2 °F 80% 30.32 in 10.0 mi Calm Calm - N/A   Clear